A4001 KDLF-KDLF

Flight info

Callsign A4001
Flight time 0h 20m
Altitude 2000
Route PATTERN
Aircraft C172/L-V/N

Departure

Time 2026-05-04 00:12
Airport Laughlin Air Force Base (KDLF)

Arrival

Time 2026-05-04 00:33
Airport Laughlin Air Force Base (KDLF)
Time Latitude Longitude Altitude Speed Heading
2026-05-04 00:07 29.36455 -100.78997 1079 ft 0 kts 288°
2026-05-04 00:09 29.36443 -100.79008 1079 ft 6 kts 145°
2026-05-04 00:09 29.36460 -100.78975 1078 ft 9 kts 29°
2026-05-04 00:09 29.36495 -100.78938 1078 ft 7 kts 42°
2026-05-04 00:09 29.36535 -100.78894 1077 ft 8 kts 43°
2026-05-04 00:10 29.36543 -100.78886 1077 ft 0 kts 43°
2026-05-04 00:10 29.36544 -100.78886 1077 ft 1 kts 42°
2026-05-04 00:10 29.36578 -100.78862 1077 ft 10 kts 23°
2026-05-04 00:11 29.36552 -100.78794 1076 ft 18 kts 138°
2026-05-04 00:11 29.36335 -100.78556 1080 ft 66 kts 136°
2026-05-04 00:11 29.35967 -100.78123 1189 ft 81 kts 137°
2026-05-04 00:11 29.35551 -100.77657 1357 ft 86 kts 141°
2026-05-04 00:12 29.35103 -100.77185 1531 ft 90 kts 143°
2026-05-04 00:12 29.34644 -100.76693 1716 ft 92 kts 139°
2026-05-04 00:12 29.34178 -100.76165 1857 ft 95 kts 159°
2026-05-04 00:12 29.33611 -100.76338 2025 ft 84 kts 229°
2026-05-04 00:13 29.33195 -100.76844 2088 ft 90 kts 245°
2026-05-04 00:13 29.33332 -100.77524 2080 ft 101 kts 307°
2026-05-04 00:13 29.33837 -100.78140 2006 ft 110 kts 311°
2026-05-04 00:13 29.34411 -100.78712 2029 ft 107 kts 317°
2026-05-04 00:14 29.34987 -100.79267 1992 ft 110 kts 314°
2026-05-04 00:14 29.35536 -100.79894 1928 ft 110 kts 306°
2026-05-04 00:14 29.35929 -100.80637 1878 ft 109 kts 296°
2026-05-04 00:14 29.36256 -100.81383 1983 ft 96 kts 291°
2026-05-04 00:15 29.36533 -100.82095 1870 ft 97 kts 298°
2026-05-04 00:15 29.37148 -100.82341 1743 ft 100 kts
2026-05-04 00:15 29.37724 -100.81995 1681 ft 95 kts 40°
2026-05-04 00:15 29.38157 -100.81425 1563 ft 93 kts 56°
2026-05-04 00:16 29.38163 -100.80740 1480 ft 89 kts 119°
2026-05-04 00:16 29.37816 -100.80190 1415 ft 82 kts 139°
2026-05-04 00:16 29.37406 -100.79755 1322 ft 81 kts 140°
2026-05-04 00:16 29.37006 -100.79295 1223 ft 81 kts 141°
2026-05-04 00:17 29.36602 -100.78844 1157 ft 83 kts 139°
2026-05-04 00:17 29.36164 -100.78357 1221 ft 90 kts 140°
2026-05-04 00:17 29.35871 -100.78034 1321 ft 86 kts 140°
2026-05-04 00:17 29.35447 -100.77553 1450 ft 87 kts 139°
2026-05-04 00:18 29.35018 -100.77054 1563 ft 88 kts 139°
2026-05-04 00:18 29.34442 -100.76387 1746 ft 89 kts 136°
2026-05-04 00:18 29.34164 -100.76033 1846 ft 88 kts 135°
2026-05-04 00:18 29.33751 -100.75517 1988 ft 88 kts 141°
2026-05-04 00:19 29.33227 -100.75420 2102 ft 78 kts 214°
2026-05-04 00:19 29.32777 -100.75816 2114 ft 86 kts 226°
2026-05-04 00:19 29.32466 -100.76348 2086 ft 88 kts 276°
2026-05-04 00:19 29.32841 -100.76903 2057 ft 92 kts 315°
2026-05-04 00:20 29.33331 -100.77385 2044 ft 94 kts 316°
2026-05-04 00:20 29.33826 -100.77873 2034 ft 94 kts 314°
2026-05-04 00:20 29.34298 -100.78398 2008 ft 96 kts 313°
2026-05-04 00:20 29.34783 -100.78921 2010 ft 94 kts 312°
2026-05-04 00:21 29.35259 -100.79447 2006 ft 97 kts 313°
2026-05-04 00:21 29.35741 -100.79984 2033 ft 97 kts 312°
2026-05-04 00:21 29.36226 -100.80513 2064 ft 96 kts 314°
2026-05-04 00:21 29.36751 -100.81076 2730 ft 117 kts 314°
2026-05-04 00:22 29.37349 -100.81747 2746 ft 123 kts 313°
2026-05-04 00:22 29.37951 -100.82455 2770 ft 125 kts 311°
2026-05-04 00:22 29.38484 -100.83236 2787 ft 125 kts 299°
2026-05-04 00:22 29.38901 -100.84124 2770 ft 127 kts 294°
2026-05-04 00:23 29.39426 -100.84892 2815 ft 123 kts 331°
2026-05-04 00:23 29.40241 -100.84899 2851 ft 120 kts 18°
2026-05-04 00:23 29.40822 -100.84231 2874 ft 121 kts 65°
2026-05-04 00:23 29.40616 -100.83349 2700 ft 126 kts 139°
2026-05-04 00:24 29.39953 -100.82652 2340 ft 133 kts 144°
2026-05-04 00:24 29.39269 -100.81926 2061 ft 132 kts 139°
2026-05-04 00:24 29.38664 -100.81179 1848 ft 120 kts 137°
2026-05-04 00:24 29.38127 -100.80537 1640 ft 105 kts 141°
2026-05-04 00:25 29.37628 -100.79985 1475 ft 92 kts 141°
2026-05-04 00:25 29.37222 -100.79539 1323 ft 70 kts 141°
2026-05-04 00:25 29.36884 -100.79157 1194 ft 67 kts 141°
2026-05-04 00:25 29.36557 -100.78796 1103 ft 63 kts 140°
2026-05-04 00:26 29.36255 -100.78475 1082 ft 57 kts 137°
2026-05-04 00:26 29.35933 -100.78094 1124 ft 73 kts 138°
2026-05-04 00:26 29.35583 -100.77676 1256 ft 71 kts 141°
2026-05-04 00:26 29.35227 -100.77263 1350 ft 75 kts 139°
2026-05-04 00:27 29.34891 -100.76799 1468 ft 77 kts 135°
2026-05-04 00:27 29.34563 -100.76326 1595 ft 74 kts 134°
2026-05-04 00:27 29.34253 -100.75853 1680 ft 76 kts 131°
2026-05-04 00:27 29.33919 -100.75452 1785 ft 66 kts 175°
2026-05-04 00:28 29.33528 -100.75566 1881 ft 56 kts 216°
2026-05-04 00:28 29.33239 -100.75862 1982 ft 60 kts 242°
2026-05-04 00:28 29.32926 -100.76269 2114 ft 77 kts 232°
2026-05-04 00:28 29.32977 -100.76866 2152 ft 95 kts 311°
2026-05-04 00:29 29.33501 -100.77393 2192 ft 104 kts 317°
2026-05-04 00:29 29.34042 -100.77969 2139 ft 110 kts 314°
2026-05-04 00:29 29.34589 -100.78548 2153 ft 107 kts 315°
2026-05-04 00:29 29.35127 -100.79155 2094 ft 110 kts 312°
2026-05-04 00:30 29.35665 -100.79760 2096 ft 107 kts 314°
2026-05-04 00:30 29.36193 -100.80360 2085 ft 105 kts 313°
2026-05-04 00:30 29.36659 -100.80893 2027 ft 88 kts 312°
2026-05-04 00:30 29.37059 -100.81341 2002 ft 75 kts 320°
2026-05-04 00:31 29.37561 -100.81243 1944 ft 86 kts 37°
2026-05-04 00:31 29.38000 -100.80767 1794 ft 83 kts 47°
2026-05-04 00:31 29.37989 -100.80183 1558 ft 75 kts 136°
2026-05-04 00:31 29.37647 -100.79772 1410 ft 71 kts 149°
2026-05-04 00:32 29.37283 -100.79395 1289 ft 71 kts 147°
2026-05-04 00:32 29.36932 -100.78998 1183 ft 70 kts 145°
2026-05-04 00:32 29.36594 -100.78616 1092 ft 67 kts 144°
2026-05-04 00:32 29.36275 -100.78276 1081 ft 55 kts 134°
2026-05-04 00:33 29.36051 -100.78025 1081 ft 37 kts 136°
2026-05-04 00:33 29.35870 -100.77928 1083 ft 10 kts 225°
2026-05-04 00:33 29.35804 -100.78005 1084 ft 16 kts 225°
2026-05-04 00:34 29.35732 -100.78089 1085 ft 12 kts 231°
2026-05-04 00:34 29.35762 -100.78154 1085 ft 12 kts 315°
2026-05-04 00:34 29.35835 -100.78236 1084 ft 17 kts 315°
2026-05-04 00:34 29.35929 -100.78341 1084 ft 20 kts 316°
2026-05-04 00:35 29.36031 -100.78456 1083 ft 20 kts 313°
2026-05-04 00:35 29.36128 -100.78565 1082 ft 19 kts 315°
2026-05-04 00:35 29.36221 -100.78669 1081 ft 18 kts 315°
2026-05-04 00:35 29.36312 -100.78772 1080 ft 18 kts 315°
2026-05-04 00:36 29.36392 -100.78861 1079 ft 15 kts 316°
2026-05-04 00:36 29.36432 -100.78923 1079 ft 7 kts 248°
2026-05-04 00:36 29.36432 -100.78961 1079 ft 0 kts 314°